| time (UTC) | temp C | wind direction | speed KPH | gust KPH | rain 1hr cm | rain 24hr cm | rain mn cm | humidity % | barometer mb |
| 20260505102130 | 13 | 110 | 0.0 | 1.6 | 0.00 | 0.15 | 0.15 | 98 | 1009.9 |
| 20260505101629 | 13 | 88 | 0.0 | 0.0 | 0.00 | 0.15 | 0.15 | 97 | 1010.2 |
| 20260505101125 | 13 | 88 | 0.0 | 1.6 | 0.30 | 0.15 | 0.15 | 97 | 1010.5 |
| 20260505100621 | 13 | 95 | 0.0 | 1.6 | 0.43 | 0.15 | 0.15 | 96 | 1010.7 |
| 20260505100118 | 13 | 94 | 0.0 | 1.6 | 0.30 | 0.10 | 0.10 | 95 | 1010.5 |
| 20260505095614 | 13 | 78 | 1.6 | 1.6 | 0.30 | 0.08 | 0.08 | 94 | 1010.6 |
| 20260505095111 | 14 | 107 | 0.0 | 1.6 | 0.13 | 0.05 | 0.05 | 92 | 1010.6 |
| 20260505094608 | 14 | 84 | 0.0 | 1.6 | 0.18 | 0.03 | 0.03 | 89 | 1010.7 |
| 20260505094104 | 15 | 64 | 1.6 | 3.2 | 0.18 | 0.03 | 0.03 | 85 | 1010.4 |
| 20260505093600 | 15 | 75 | 1.6 | 3.2 | 0.00 | 0.00 | 0.00 | 80 | 1010.4 |
| 20260505093058 | 16 | 91 | 0.0 | 1.6 | 0.00 | 0.00 | 0.00 | 76 | 1009.9 |
| 20260505092555 | 16 | 109 | 0.0 | 1.6 | 0.00 | 0.00 | 0.00 | 73 | 1009.7 |
| 20260505092053 | 17 | 109 | 0.0 | 1.6 | 0.00 | 0.00 | 0.00 | 72 | 1009.4 |
| 20260505091550 | 17 | 107 | 1.6 | 1.6 | 0.00 | 0.00 | 0.00 | 66 | 1009.4 |
| 20260505091049 | 17 | 119 | 1.6 | 4.8 | 0.00 | 0.00 | 0.00 | 65 | 1009.3 |
| 20260505090546 | 17 | 143 | 1.6 | 4.8 | 0.00 | 0.00 | 0.00 | 65 | 1008.9 |
| 20260505090044 | 17 | 220 | 1.6 | 6.4 | 0.00 | 0.00 | 0.00 | 64 | 1008.8 |
| 20260505085541 | 17 | 125 | 1.6 | 4.8 | 0.00 | 0.00 | 0.00 | 64 | 1008.6 |
| 20260505085039 | 17 | 141 | 1.6 | 3.2 | 0.00 | 0.00 | 0.00 | 64 | 1008.6 |
| 20260505084537 | 17 | 165 | 1.6 | 3.2 | 0.00 | 0.00 | 0.00 | 64 | 1008.5 |
| 20260505084035 | 17 | 131 | 0.0 | 6.4 | 0.00 | 0.00 | 0.00 | 64 | 1008.5 |
| 20260505083532 | 17 | 100 | 0.0 | 3.2 | 0.00 | 0.00 | 0.00 | 64 | 1008.5 |
| 20260505083028 | 17 | 109 | 0.0 | 3.2 | 0.00 | 0.00 | 0.00 | 64 | 1008.4 |
| 20260505082524 | 17 | 145 | 3.2 | 4.8 | 0.00 | 0.00 | 0.00 | 64 | 1008.4 |
| 20260505082021 | 17 | 124 | 1.6 | 3.2 | 0.00 | 0.00 | 0.00 | 63 | 1008.3 |
| 20260505081518 | 17 | 192 | 1.6 | 1.6 | 0.00 | 0.00 | 0.00 | 63 | 1008.1 |
| 20260505081015 | 17 | 114 | 3.2 | 6.4 | 0.00 | 0.00 | 0.00 | 63 | 1008.0 |
| 20260505080511 | 17 | 113 | 0.0 | 1.6 | 0.00 | 0.00 | 0.00 | 63 | 1007.9 |
| 20260505080007 | 17 | 112 | 0.0 | 1.6 | 0.00 | 0.00 | 0.00 | 63 | 1008.1 |
| 20260505075503 | 17 | 108 | 0.0 | 4.8 | 0.00 | 0.00 | 0.00 | 62 | 1008.0 |
| 20260505075000 | 17 | 145 | 3.2 | 6.4 | 0.00 | 0.00 | 0.00 | 61 | 1007.9 |
| 20260505074458 | 18 | 100 | 1.6 | 9.7 | 0.00 | 0.00 | 0.00 | 61 | 1008.1 |
| 20260505073955 | 18 | 120 | 3.2 | 6.4 | 0.00 | 0.00 | 0.00 | 61 | 1007.8 |
| 20260505073452 | 18 | 145 | 1.6 | 4.8 | 0.00 | 0.00 | 0.00 | 61 | 1007.9 |
| 20260505072949 | 18 | 176 | 3.2 | 9.7 | 0.00 | 0.00 | 0.00 | 61 | 1007.7 |
| 20260505072445 | 18 | 173 | 1.6 | 3.2 | 0.00 | 0.00 | 0.00 | 61 | 1007.6 |
| 20260505071942 | 18 | 154 | 1.6 | 11.3 | 0.00 | 0.00 | 0.00 | 61 | 1007.3 |
| 20260505071438 | 18 | 110 | 3.2 | 9.7 | 0.00 | 0.00 | 0.00 | 61 | 1007.4 |
| 20260505070936 | 18 | 219 | 1.6 | 6.4 | 0.00 | 0.00 | 0.00 | 60 | 1007.5 |
| 20260505070432 | 18 | 10 | 1.6 | 11.3 | 0.00 | 0.00 | 0.00 | 60 | 1007.7 |
| 20260505065928 | 18 | 159 | 6.4 | 11.3 | 0.00 | 0.00 | 0.00 | 59 | 1007.6 |
| 20260505065424 | 18 | 235 | 4.8 | 11.3 | 0.00 | 0.00 | 0.00 | 59 | 1007.6 |
| 20260505064921 | 18 | 98 | 1.6 | 12.9 | 0.00 | 0.00 | 0.00 | 60 | 1007.7 |
| 20260505064419 | 18 | 159 | 3.2 | 4.8 | 0.00 | 0.00 | 0.00 | 60 | 1007.6 |
| 20260505063917 | 18 | 155 | 3.2 | 11.3 | 0.00 | 0.00 | 0.00 | 59 | 1007.8 |
| 20260505063413 | 18 | 221 | 8.0 | 14.5 | 0.00 | 0.00 | 0.00 | 59 | 1007.7 |
| 20260505062909 | 18 | 194 | 3.2 | 4.8 | 0.00 | 0.00 | 0.00 | 59 | 1007.7 |
| 20260505062407 | 18 | 165 | 3.2 | 14.5 | 0.00 | 0.00 | 0.00 | 59 | 1007.7 |
| 20260505061903 | 18 | 66 | 3.2 | 12.9 | 0.00 | 0.00 | 0.00 | 59 | 1007.7 |
| 20260505061402 | 18 | 198 | 6.4 | 12.9 | 0.00 | 0.00 | 0.00 | 59 | 1007.8 |
| 20260505060859 | 18 | 155 | 3.2 | 17.7 | 0.00 | 0.00 | 0.00 | 59 | 1007.7 |
| 20260505060356 | 18 | 154 | 8.0 | 11.3 | 0.00 | 0.00 | 0.00 | 59 | 1007.4 |
| 20260505055852 | 18 | 208 | 4.8 | 14.5 | 0.00 | 0.00 | 0.00 | 59 | 1007.4 |
| 20260505055348 | 18 | 115 | 4.8 | 6.4 | 0.00 | 0.00 | 0.00 | 58 | 1007.4 |
| 20260505054845 | 18 | 87 | 6.4 | 20.9 | 0.00 | 0.00 | 0.00 | 58 | 1007.4 |
| 20260505054342 | 18 | 209 | 6.4 | 11.3 | 0.00 | 0.00 | 0.00 | 58 | 1007.1 |
| 20260505053840 | 18 | 145 | 6.4 | 11.3 | 0.00 | 0.00 | 0.00 | 58 | 1007.2 |
| 20260505053337 | 18 | 191 | 6.4 | 12.9 | 0.00 | 0.00 | 0.00 | 59 | 1007.3 |
| 20260505052834 | 19 | 81 | 3.2 | 11.3 | 0.00 | 0.00 | 0.00 | 58 | 1007.1 |
| 20260505052331 | 19 | 163 | 4.8 | 11.3 | 0.00 | 0.00 | 0.00 | 58 | 1007.2 |
| 20260505051828 | 19 | 208 | 4.8 | 9.7 | 0.00 | 0.00 | 0.00 | 58 | 1007.1 |
| 20260505051325 | 19 | 159 | 3.2 | 6.4 | 0.00 | 0.00 | 0.00 | 58 | 1007.0 |
| 20260505050823 | 19 | 244 | 3.2 | 11.3 | 0.00 | 0.00 | 0.00 | 58 | 1007.1 |
| 20260505050322 | 19 | 147 | 1.6 | 6.4 | 0.00 | 0.00 | 0.00 | 58 | 1007.3 |
| 20260505041751 | 20 | 188 | 3.2 | 11.3 | 0.00 | 0.00 | 0.00 | 58 | 1007.6 |
| 20260505041249 | 20 | 154 | 3.2 | 9.7 | 0.00 | 0.00 | 0.00 | 58 | 1007.6 |
| 20260505040746 | 20 | 228 | 3.2 | 11.3 | 0.00 | 0.00 | 0.00 | 58 | 1007.7 |
| 20260505040243 | 20 | 229 | 3.2 | 4.8 | 0.00 | 0.00 | 0.00 | 58 | 1007.7 |
| 20260505035740 | 20 | 195 | 4.8 | 12.9 | 0.00 | 0.00 | 0.00 | 58 | 1007.9 |
| 20260505035236 | 20 | 129 | 1.6 | 9.7 | 0.00 | 0.00 | 0.00 | 58 | 1008.0 |
| 20260505034733 | 20 | 223 | 3.2 | 6.4 | 0.00 | 0.00 | 0.00 | 58 | 1008.0 |
| 20260505034230 | 20 | 205 | 3.2 | 9.7 | 0.00 | 0.00 | 0.00 | 58 | 1007.8 |
| 20260505033727 | 20 | 195 | 1.6 | 6.4 | 0.00 | 0.00 | 0.00 | 59 | 1007.8 |
| 20260505033225 | 20 | 126 | 6.4 | 11.3 | 0.00 | 0.00 | 0.00 | 58 | 1007.7 |
| 20260505032722 | 20 | 254 | 3.2 | 6.4 | 0.00 | 0.00 | 0.00 | 58 | 1007.8 |
| 20260505032218 | 20 | 227 | 3.2 | 4.8 | 0.00 | 0.00 | 0.00 | 59 | 1007.8 |
| 20260505031716 | 20 | 87 | 1.6 | 3.2 | 0.00 | 0.00 | 0.00 | 59 | 1007.7 |
| 20260505031212 | 20 | 136 | 3.2 | 6.4 | 0.00 | 0.00 | 0.00 | 59 | 1007.7 |
| 20260505030709 | 20 | 173 | 4.8 | 6.4 | 0.00 | 0.00 | 0.00 | 59 | 1007.7 |
| 20260505030205 | 20 | 198 | 1.6 | 12.9 | 0.00 | 0.00 | 0.00 | 60 | 1007.7 |
| 20260505025700 | 20 | 86 | 0.0 | 12.9 | 0.00 | 0.00 | 0.00 | 59 | 1007.6 |
| 20260505025159 | 20 | 110 | 4.8 | 6.4 | 0.00 | 0.00 | 0.00 | 59 | 1007.4 |
| 20260505024657 | 20 | 112 | 1.6 | 6.4 | 0.00 | 0.00 | 0.00 | 59 | 1007.4 |
| 20260505024153 | 20 | 146 | 1.6 | 4.8 | 0.00 | 0.00 | 0.00 | 59 | 1007.4 |
| 20260505023651 | 20 | 198 | 3.2 | 4.8 | 0.00 | 0.00 | 0.00 | 59 | 1007.3 |
| 20260505023148 | 20 | 245 | 6.4 | 9.7 | 0.00 | 0.00 | 0.00 | 58 | 1007.3 |
| 20260505022646 | 20 | 178 | 4.8 | 12.9 | 0.00 | 0.00 | 0.00 | 58 | 1007.4 |
| 20260505022143 | 20 | 169 | 4.8 | 4.8 | 0.00 | 0.00 | 0.00 | 59 | 1007.2 |
| 20260505021639 | 20 | 193 | 4.8 | 4.8 | 0.00 | 0.00 | 0.00 | 58 | 1007.2 |
| 20260505021136 | 20 | 128 | 4.8 | 6.4 | 0.00 | 0.00 | 0.00 | 58 | 1007.1 |
| 20260505020631 | 20 | 151 | 1.6 | 3.2 | 0.00 | 0.00 | 0.00 | 58 | 1007.1 |
| 20260505020128 | 20 | 176 | 3.2 | 4.8 | 0.00 | 0.00 | 0.00 | 58 | 1006.9 |
| 20260505015625 | 20 | 142 | 3.2 | 4.8 | 0.00 | 0.00 | 0.00 | 58 | 1006.7 |
| 20260505015122 | 20 | 101 | 3.2 | 6.4 | 0.00 | 0.00 | 0.00 | 58 | 1006.8 |
| 20260505014618 | 20 | 119 | 3.2 | 4.8 | 0.00 | 0.00 | 0.00 | 58 | 1006.6 |
| 20260505014115 | 20 | 126 | 1.6 | 4.8 | 0.00 | 0.00 | 0.00 | 58 | 1006.6 |
| 20260505013613 | 20 | 210 | 6.4 | 9.7 | 0.00 | 0.00 | 0.00 | 58 | 1006.6 |
| 20260505013110 | 20 | 180 | 1.6 | 3.2 | 0.00 | 0.00 | 0.00 | 59 | 1006.5 |
| 20260505012608 | 20 | 148 | 3.2 | 3.2 | 0.00 | 0.00 | 0.00 | 58 | 1006.5 |
| 20260505012104 | 20 | 146 | 1.6 | 4.8 | 0.00 | 0.00 | 0.00 | 58 | 1006.4 |
| 20260505011600 | 21 | 104 | 0.0 | 4.8 | 0.00 | 0.00 | 0.00 | 58 | 1006.3 |
| 20260505011058 | 21 | 140 | 1.6 | 6.4 | 0.00 | 0.00 | 0.00 | 57 | 1006.6 |
| 20260505010558 | 21 | 127 | 4.8 | 4.8 | 0.00 | 0.00 | 0.00 | 57 | 1006.3 |
| 20260505010055 | 21 | 217 | 3.2 | 9.7 | 0.00 | 0.00 | 0.00 | 57 | 1006.4 |
| 20260505005552 | 21 | 137 | 3.2 | 4.8 | 0.00 | 0.00 | 0.00 | 57 | 1006.3 |
| 20260505005049 | 21 | 146 | 3.2 | 6.4 | 0.00 | 0.00 | 0.00 | 56 | 1006.4 |
| 20260505004546 | 21 | 126 | 1.6 | 6.4 | 0.00 | 0.00 | 0.00 | 56 | 1006.3 |
| 20260505004043 | 21 | 140 | 1.6 | 6.4 | 0.00 | 0.00 | 0.00 | 55 | 1006.4 |
| 20260505003540 | 21 | 195 | 3.2 | 6.4 | 0.00 | 0.00 | 0.00 | 55 | 1006.4 |
| 20260505003037 | 21 | 103 | 1.6 | 4.8 | 0.00 | 0.00 | 0.00 | 55 | 1006.2 |
| 20260505002537 | 21 | 100 | 3.2 | 4.8 | 0.00 | 0.00 | 0.00 | 54 | 1006.4 |
| 20260505002037 | 21 | 122 | 4.8 | 6.4 | 0.00 | 0.00 | 0.00 | 54 | 1006.4 |
| 20260505001534 | 22 | 119 | 3.2 | 4.8 | 0.00 | 0.00 | 0.00 | 53 | 1006.6 |
| 20260505001031 | 22 | 129 | 1.6 | 4.8 | 0.00 | 0.00 | 0.00 | 52 | 1006.4 |
| 20260505000528 | 22 | 196 | 1.6 | 4.8 | 0.00 | 0.00 | 0.00 | 52 | 1006.6 |
| 20260505000026 | 22 | 190 | 3.2 | 6.4 | 0.00 | 0.00 | 0.00 | 52 | 1006.7 |
| 20260504235522 | 22 | 140 | 1.6 | 4.8 | 0.00 | 0.00 | 0.00 | 52 | 1006.8 |
| 20260504235019 | 22 | 102 | 0.0 | 3.2 | 0.00 | 0.00 | 0.00 | 52 | 1006.8 |
| 20260504234516 | 22 | 116 | 1.6 | 3.2 | 0.00 | 0.00 | 0.00 | 51 | 1006.6 |
| 20260504234013 | 22 | 202 | 3.2 | 9.7 | 0.00 | 0.00 | 0.00 | 50 | 1006.8 |
| 20260504233508 | 22 | 200 | 1.6 | 6.4 | 0.00 | 0.00 | 0.00 | 51 | 1006.9 |
| 20260504233005 | 22 | 207 | 3.2 | 11.3 | 0.00 | 0.00 | 0.00 | 50 | 1006.9 |
| 20260504232503 | 22 | 197 | 4.8 | 16.1 | 0.00 | 0.00 | 0.00 | 49 | 1007.0 |
| 20260504232000 | 23 | 221 | 1.6 | 9.7 | 0.00 | 0.00 | 0.00 | 49 | 1007.2 |
| 20260504231456 | 23 | 225 | 4.8 | 6.4 | 0.00 | 0.00 | 0.00 | 49 | 1007.1 |
| 20260504230953 | 23 | 132 | 3.2 | 9.7 | 0.00 | 0.00 | 0.00 | 49 | 1007.3 |
| 20260504230449 | 23 | 210 | 3.2 | 12.9 | 0.00 | 0.00 | 0.00 | 47 | 1007.1 |
| 20260504225948 | 23 | 201 | 4.8 | 22.5 | 0.00 | 0.00 | 0.00 | 47 | 1007.2 |
| 20260504225444 | 23 | 223 | 4.8 | 6.4 | 0.00 | 0.00 | 0.00 | 47 | 1007.5 |
| 20260504224942 | 23 | 197 | 1.6 | 9.7 | 0.00 | 0.00 | 0.00 | 47 | 1007.3 |
| 20260504224438 | 24 | 191 | 6.4 | 6.4 | 0.00 | 0.00 | 0.00 | 46 | 1007.4 |
| 20260504223936 | 24 | 166 | 4.8 | 11.3 | 0.00 | 0.00 | 0.00 | 47 | 1007.2 |
| 20260504223431 | 24 | 25 | 6.4 | 12.9 | 0.00 | 0.00 | 0.00 | 47 | 1007.3 |
| 20260504222927 | 23 | 164 | 4.8 | 12.9 | 0.00 | 0.00 | 0.00 | 45 | 1007.3 |
| 20260504222425 | 24 | 93 | 4.8 | 9.7 | 0.00 | 0.00 | 0.00 | 47 | 1007.2 |
| 20260504221923 | 24 | 205 | 6.4 | 9.7 | 0.00 | 0.00 | 0.00 | 46 | 1007.3 |
| 20260504221419 | 24 | 167 | 6.4 | 12.9 | 0.00 | 0.00 | 0.00 | 47 | 1007.5 |
| 20260504220916 | 24 | 201 | 8.0 | 12.9 | 0.00 | 0.00 | 0.00 | 48 | 1007.4 |
| 20260504220413 | 24 | 200 | 3.2 | 4.8 | 0.00 | 0.00 | 0.00 | 52 | 1007.1 |
| 20260504215910 | 23 | 170 | 3.2 | 4.8 | 0.00 | 0.00 | 0.00 | 51 | 1007.2 |
| 20260504215407 | 23 | 119 | 0.0 | 1.6 | 0.00 | 0.00 | 0.00 | 54 | 1007.5 |
| 20260504214903 | 23 | 197 | 0.0 | 1.6 | 0.00 | 0.00 | 0.00 | 53 | 1007.4 |
| 20260504214359 | 23 | 119 | 0.0 | 1.6 | 0.00 | 0.00 | 0.00 | 53 | 1007.6 |
| 20260504213856 | 23 | 143 | 3.2 | 3.2 | 0.00 | 0.00 | 0.00 | 52 | 1007.5 |
| 20260504213352 | 23 | 189 | 1.6 | 3.2 | 0.00 | 0.00 | 0.00 | 51 | 1007.7 |
| 20260504212850 | 23 | 106 | 1.6 | 3.2 | 0.00 | 0.00 | 0.00 | 50 | 1007.6 |
| 20260504212345 | 23 | 117 | 0.0 | 1.6 | 0.00 | 0.00 | 0.00 | 51 | 1007.9 |
| 20260504211844 | 23 | 176 | 1.6 | 1.6 | 0.00 | 0.00 | 0.00 | 50 | 1007.9 |
| 20260504211339 | 23 | 122 | 1.6 | 3.2 | 0.00 | 0.00 | 0.00 | 50 | 1008.1 |
| 20260504210837 | 23 | 131 | 1.6 | 3.2 | 0.00 | 0.00 | 0.00 | 52 | 1008.1 |
| 20260504210334 | 23 | 154 | 1.6 | 3.2 | 0.00 | 0.00 | 0.00 | 50 | 1008.1 |
| 20260504205831 | 24 | 136 | 3.2 | 9.7 | 0.00 | 0.00 | 0.00 | 48 | 1008.1 |
| 20260504205328 | 25 | 148 | 1.6 | 9.7 | 0.00 | 0.00 | 0.00 | 47 | 1008.2 |
| 20260504204826 | 25 | 152 | 3.2 | 6.4 | 0.00 | 0.00 | 0.00 | 45 | 1008.1 |
| 20260504204325 | 25 | 163 | 1.6 | 4.8 | 0.00 | 0.00 | 0.00 | 47 | 1008.1 |
| 20260504203824 | 25 | 226 | 4.8 | 6.4 | 0.00 | 0.00 | 0.00 | 47 | 1008.4 |
| 20260504203320 | 25 | 179 | 3.2 | 9.7 | 0.00 | 0.00 | 0.00 | 49 | 1008.4 |
| 20260504202816 | 25 | 110 | 3.2 | 6.4 | 0.00 | 0.00 | 0.00 | 51 | 1008.4 |
| 20260504202314 | 24 | 170 | 3.2 | 6.4 | 0.00 | 0.00 | 0.00 | 51 | 1008.5 |
| 20260504201810 | 24 | 182 | 4.8 | 11.3 | 0.00 | 0.00 | 0.00 | 51 | 1008.8 |
| 20260504201308 | 23 | 191 | 1.6 | 6.4 | 0.00 | 0.00 | 0.00 | 52 | 1008.7 |
| 20260504200805 | 23 | 112 | 3.2 | 4.8 | 0.00 | 0.00 | 0.00 | 52 | 1008.7 |
| 20260504200301 | 24 | 216 | 3.2 | 4.8 | 0.00 | 0.00 | 0.00 | 51 | 1008.7 |
| 20260504195757 | 24 | 188 | 0.0 | 9.7 | 0.00 | 0.00 | 0.00 | 51 | 1008.9 |
| 20260504195253 | 24 | 238 | 3.2 | 6.4 | 0.00 | 0.00 | 0.00 | 49 | 1009.0 |
| 20260504194751 | 23 | 156 | 1.6 | 6.4 | 0.00 | 0.00 | 0.00 | 52 | 1009.0 |
| 20260504194247 | 23 | 207 | 1.6 | 6.4 | 0.00 | 0.00 | 0.00 | 52 | 1009.0 |
| 20260504193743 | 24 | 206 | 3.2 | 6.4 | 0.00 | 0.00 | 0.00 | 51 | 1009.1 |
| 20260504193240 | 23 | 190 | 1.6 | 3.2 | 0.00 | 0.00 | 0.00 | 54 | 1009.4 |
| 20260504192739 | 23 | 49 | 3.2 | 11.3 | 0.00 | 0.00 | 0.00 | 51 | 1009.3 |
| 20260504192236 | 23 | 189 | 3.2 | 6.4 | 0.00 | 0.00 | 0.00 | 55 | 1009.5 |
| 20260504191735 | 23 | 74 | 1.6 | 6.4 | 0.00 | 0.00 | 0.00 | 54 | 1009.6 |
| 20260504191232 | 22 | 212 | 1.6 | 11.3 | 0.00 | 0.00 | 0.00 | 54 | 1009.7 |
| 20260504190726 | 23 | 146 | 6.4 | 11.3 | 0.00 | 0.00 | 0.00 | 54 | 1009.6 |
| 20260504190224 | 23 | 87 | 3.2 | 4.8 | 0.00 | 0.00 | 0.00 | 56 | 1009.8 |
| 20260504185720 | 22 | 162 | 1.6 | 4.8 | 0.00 | 0.00 | 0.00 | 57 | 1009.8 |
| 20260504185217 | 22 | 191 | 3.2 | 16.1 | 0.00 | 0.00 | 0.00 | 59 | 1009.9 |
| 20260504184713 | 21 | 198 | 3.2 | 11.3 | 0.00 | 0.00 | 0.00 | 60 | 1010.0 |
| 20260504184209 | 21 | 205 | 1.6 | 4.8 | 0.00 | 0.00 | 0.00 | 61 | 1009.9 |
| 20260504183705 | 21 | 206 | 3.2 | 6.4 | 0.00 | 0.00 | 0.00 | 60 | 1009.9 |
| 20260504183202 | 21 | 161 | 3.2 | 4.8 | 0.00 | 0.00 | 0.00 | 60 | 1010.1 |
| 20260504182700 | 20 | 88 | 1.6 | 3.2 | 0.00 | 0.00 | 0.00 | 63 | 1010.0 |
| 20260504182157 | 20 | 157 | 3.2 | 9.7 | 0.00 | 0.00 | 0.00 | 61 | 1010.2 |
| 20260504181654 | 21 | 167 | 4.8 | 11.3 | 0.00 | 0.00 | 0.00 | 61 | 1009.9 |
| 20260504181152 | 20 | 118 | 6.4 | 9.7 | 0.00 | 0.00 | 0.00 | 60 | 1009.9 |
| 20260504180651 | 20 | 139 | 4.8 | 4.8 | 0.00 | 0.00 | 0.00 | 63 | 1009.7 |
| 20260504180149 | 20 | 125 | 6.4 | 11.3 | 0.00 | 0.00 | 0.00 | 60 | 1010.0 |
| 20260504175646 | 20 | 193 | 3.2 | 16.1 | 0.00 | 0.00 | 0.00 | 62 | 1009.7 |
| 20260504175142 | 20 | 201 | 8.0 | 14.5 | 0.00 | 0.00 | 0.00 | 60 | 1009.6 |
| 20260504174641 | 20 | 190 | 3.2 | 16.1 | 0.00 | 0.00 | 0.00 | 60 | 1009.8 |
| 20260504174137 | 20 | 191 | 6.4 | 17.7 | 0.00 | 0.00 | 0.00 | 60 | 1009.6 |
| 20260504173634 | 20 | 185 | 4.8 | 20.9 | 0.00 | 0.00 | 0.00 | 59 | 1009.6 |
| 20260504173132 | 20 | 237 | 3.2 | 9.7 | 0.00 | 0.00 | 0.00 | 61 | 1009.5 |
| 20260504172628 | 20 | 207 | 8.0 | 12.9 | 0.00 | 0.00 | 0.00 | 58 | 1009.6 |
| 20260504172125 | 21 | 221 | 6.4 | 11.3 | 0.00 | 0.00 | 0.00 | 60 | 1009.6 |
| 20260504171621 | 20 | 208 | 4.8 | 11.3 | 0.00 | 0.00 | 0.00 | 60 | 1009.8 |
| 20260504171119 | 20 | 114 | 3.2 | 9.7 | 0.00 | 0.00 | 0.00 | 62 | 1009.7 |
| 20260504170615 | 19 | 126 | 3.2 | 9.7 | 0.00 | 0.00 | 0.00 | 63 | 1009.4 |
| 20260504170112 | 20 | 218 | 6.4 | 12.9 | 0.00 | 0.00 | 0.00 | 60 | 1009.1 |
| 20260504150958 | 18 | 107 | 3.2 | 11.3 | 0.00 | 0.00 | 0.00 | 61 | 1010.3 |
| 20260504150455 | 18 | 202 | 3.2 | 6.4 | 0.00 | 0.00 | 0.00 | 63 | 1010.1 |
| 20260504140921 | 16 | 183 | 1.6 | 3.2 | 0.00 | 0.00 | 0.00 | 67 | 1010.2 |
| 20260504140417 | 16 | 137 | 3.2 | 4.8 | 0.00 | 0.00 | 0.00 | 65 | 1010.3 |
| 20260504130343 | 12 | 275 | 3.2 | 11.3 | 0.00 | 0.00 | 0.00 | 71 | 1010.8 |
| 20260504120306 | 12 | 196 | 3.2 | 3.2 | 0.00 | 0.00 | 0.00 | 71 | 1011.1 |
| 20260504110230 | 12 | 125 | 1.6 | 6.4 | 0.00 | 0.00 | 0.00 | 67 | 1010.5 |